Wind_Speed
4 4 4 5 6 7 7 7 8 9 9 9 8 8 8 8 8 8 7 7 6 5 5 4 4 3 2 2 2 2 2 3 3 3 4 4 4 4 4 4 4 5 5
3 3 4 4 5 6 6 6 7 8 8 9 8 8 8 8 8 8 8 7 6 6 5 5 4 3 2 2 3 3 3 4 3 3 4 4 5 5 5 5 5 5 5
3 3 3 3 3 4 6 6 7 7 8 8 8 7 7 8 8 8 8 8 7 7 6 5 4 4 3 3 3 3 4 4 3 4 4 5 5 6 6 6 6 5 5
2 2 2 2 3 3 5 6 6 6 7 7 7 8 8 8 8 8 8 8 8 7 7 5 5 4 4 4 4 4 4 3 4 4 5 5 6 6 7 7 7 6 6
2 1 1 1 2 2 4 5 6 6 6 7 7 8 8 8 8 8 8 9 8 8 7 6 5 4 4 4 4 4 4 4 4 5 5 5 6 6 7 7 8 7 7
2 2 1 1 1 2 3 5 5 6 6 6 7 7 8 8 8 8 8 8 8 8 7 6 5 4 4 4 4 4 4 4 5 5 5 6 6 6 7 7 8 8 8
3 2 1 0 1 1 2 4 4 5 5 6 6 7 7 7 8 8 8 8 8 8 7 6 5 5 4 4 4 4 4 4 5 5 6 6 6 6 7 7 7 8 8
3 3 1 0 0 0 2 3 4 4 5 5 6 6 7 7 8 8 8 8 8 8 8 7 6 5 4 4 3 3 4 4 5 6 6 5 5 5 6 7 7 8 8
4 3 2 0 1 1 1 2 3 4 4 5 5 6 7 7 8 8 8 8 8 8 8 7 6 5 4 4 3 4 4 4 5 5 6 6 5 6 6 7 8 8 9
4 3 3 1 0 1 1 2 3 3 4 5 5 6 6 7 8 8 8 8 8 8 8 7 6 5 4 4 3 3 4 5 5 6 6 6 6 6 7 7 8 8 9
4 3 3 2 1 1 1 2 3 3 4 4 5 6 6 7 8 8 8 8 8 8 8 7 6 5 4 4 4 4 4 4 5 5 5 6 6 6 7 7 8 8 9
5 4 4 3 2 1 2 2 3 3 3 4 5 5 6 7 8 8 8 8 8 8 7 7 6 5 4 4 4 4 4 4 4 4 5 5 5 6 7 7 7 8 9
6 5 4 3 2 2 3 3 3 3 3 4 5 5 6 6 7 8 8 8 8 7 7 6 6 5 4 4 4 4 3 3 3 3 4 5 6 6 7 7 8 8 9
6 5 4 4 3 3 3 3 3 3 3 4 4 5 6 6 6 7 8 8 8 8 7 7 6 5 4 4 4 4 3 3 3 3 4 5 6 6 6 7 8 8 9
6 6 5 4 3 3 3 3 3 3 3 3 3 4 5 6 6 7 7 7 8 8 7 7 6 5 5 4 4 3 3 3 3 4 4 5 6 6 6 7 8 9 9
7 7 6 5 4 4 4 4 3 3 3 3 3 4 5 5 6 7 7 8 8 8 7 7 6 5 4 4 4 4 3 3 4 4 4 5 5 6 7 7 8 9 9
9 8 7 6 5 5 5 4 4 3 3 3 3 3 4 5 5 6 7 8 8 7 7 7 6 5 5 4 4 3 3 4 4 4 5 5 5 6 6 7 8 9 9
10 9 8 7 6 6 5 5 5 4 4 4 3 3 4 5 5 6 7 7 7 7 7 7 6 5 5 5 4 4 4 4 4 5 5 5 5 6 6 7 7 8 8
10 10 9 8 7 6 6 6 5 5 4 4 4 4 4 5 5 6 6 7 7 7 7 7 6 6 5 5 5 5 5 5 5 5 6 6 6 6 7 7 7 8 8
10 10 10 8 8 8 7 6 6 5 5 5 5 5 4 5 5 6 6 7 7 7 7 7 6 6 6 6 6 5 6 6 6 6 6 6 6 7 7 7 8 8 9
11 11 10 9 8 8 8 7 7 6 6 6 6 6 6 6 6 6 6 7 7 7 7 7 6 6 6 6 7 7 7 6 6 6 6 6 7 7 7 8 8 9 10
12 12 11 10 9 9 8 7 7 7 7 7 6 6 6 6 7 7 7 7 8 7 7 7 6 6 6 7 7 7 7 7 7 7 7 7 7 8 8 9 9 10 11
13 12 12 11 10 9 9 8 8 7 7 7 6 6 7 7 7 7 7 7 7 7 7 7 7 7 7 7 8 8 8 8 8 8 8 8 9 9 9 9 10 11 11
13 13 12 11 10 10 9 9 9 8 8 7 7 7 7 7 7 7 7 7 7 7 7 7 7 7 8 8 8 8 9 9 9 10 9 9 9 10 10 10 11 11 12
13 12 12 12 11 11 10 10 9 9 9 8 8 8 8 7 7 7 8 8 8 7 7 7 8 9 9 9 9 9 10 10 10 10 11 11 10 11 11 11 12 12 13
13 13 12 12 11 11 11 10 10 9 9 9 9 8 8 8 8 8 8 8 8 9 9 9 9 10 10 10 10 11 11 11 11 11 11 12 12 12 13 13 13 14 14
Wind_Direction
109 98 94 78 64 57 46 40 38 36 35 32 31 31 28 27 25 21 14 12 8 4 3 0 357 349 344 317 293 280 263 251 240 231 231 234 234 234 231 223 215 204 202
115 108 96 73 54 43 36 34 33 31 31 30 29 28 27 25 21 16 11 7 1 353 347 342 336 331 316 295 287 274 266 260 250 242 238 236 235 233 233 227 223 216 212
124 117 93 67 48 40 35 31 29 28 29 28 27 26 23 20 15 10 6 3 357 348 341 332 321 315 303 291 279 273 263 256 252 253 249 244 242 239 239 235 228 223 220
132 126 98 65 47 40 34 35 31 26 27 27 25 22 18 16 11 6 4 0 356 349 341 330 317 308 296 283 273 267 259 256 257 257 254 250 248 244 243 237 229 223 223
160 149 107 68 48 38 34 30 27 28 28 25 22 19 15 13 9 5 4 1 356 351 344 335 326 311 293 282 274 268 261 257 260 259 258 258 256 248 245 240 233 227 227
168 167 155 100 43 33 37 29 26 27 26 23 20 17 14 11 9 5 4 2 359 355 350 342 335 318 300 290 282 275 268 262 264 266 266 265 262 255 249 244 234 230 229
184 191 192 100 32 52 36 29 25 24 22 19 21 17 13 11 7 4 3 2 360 356 354 353 344 335 317 300 289 278 271 265 265 266 266 267 265 259 253 243 235 232 230
208 209 212 17 60 41 17 23 23 21 19 19 20 15 10 7 4 3 359 359 359 357 355 352 350 341 325 305 292 281 277 273 270 268 262 265 267 262 252 245 237 234 232
217 229 227 267 48 46 13 12 14 15 15 14 10 7 5 3 2 1 358 357 356 356 357 355 350 345 336 315 295 278 273 275 275 271 262 262 262 260 255 248 241 239 236
210 221 219 221 105 41 4 351 354 2 5 2 5 6 2 2 3 -0 358 355 352 352 354 355 348 348 342 321 306 294 282 280 278 270 266 264 260 259 254 254 250 240 238
205 208 209 223 258 314 322 331 339 347 355 356 0 2 2 1 0 358 355 352 351 352 354 355 351 345 342 331 319 312 298 286 279 276 271 266 262 261 256 253 250 244 243
209 204 211 231 244 272 289 310 323 334 345 351 356 358 358 357 358 357 353 353 353 356 357 358 355 347 341 338 327 317 306 299 287 283 276 268 266 261 255 253 249 246 244
207 207 213 222 239 268 280 295 311 315 330 343 351 357 356 354 357 358 358 355 354 355 356 356 353 348 344 345 337 323 313 306 299 291 283 276 271 265 259 257 254 251 249
206 208 213 222 237 262 285 293 299 305 317 338 348 353 358 357 358 358 359 356 352 352 353 355 355 355 357 356 345 333 322 312 305 299 290 282 277 271 264 262 259 258 258
214 215 214 224 243 260 272 283 294 302 310 329 340 349 353 354 358 358 356 352 351 353 356 359 2 6 3 358 352 341 329 317 304 300 292 287 281 274 269 265 263 261 261
219 221 221 230 244 263 267 266 274 286 300 321 326 344 346 347 351 351 348 351 353 355 358 359 4 6 3 360 355 346 334 323 312 304 297 289 281 275 272 266 264 263 260
223 227 229 236 248 264 268 263 267 279 294 310 316 325 333 340 346 346 349 351 354 355 355 358 4 3 355 351 350 344 339 335 322 313 304 292 280 275 272 269 268 265 263
227 227 229 237 250 262 262 260 261 271 286 295 301 309 319 328 339 343 344 348 353 355 354 355 356 354 349 342 339 337 333 329 323 317 310 300 289 280 276 271 269 267 267
228 225 228 238 251 256 256 257 261 269 275 282 286 290 303 316 325 332 335 339 346 348 349 349 348 347 345 338 332 330 330 327 321 317 309 301 292 282 279 277 272 267 267
222 222 226 235 248 254 252 254 259 266 267 274 279 280 290 300 309 316 323 326 335 342 342 343 342 341 339 337 332 329 330 326 318 316 311 304 296 286 280 277 276 272 272
220 223 229 240 251 253 253 254 258 264 268 272 278 283 284 291 299 305 313 320 328 333 335 336 335 336 336 335 335 333 333 330 321 318 309 306 299 294 287 281 278 277 278
223 228 233 240 248 253 257 257 260 262 267 271 276 278 283 289 295 298 307 319 320 322 330 332 331 332 331 330 328 328 328 329 322 315 307 302 297 295 291 287 283 280 281
228 230 233 241 247 251 254 257 261 262 265 270 277 283 288 291 294 300 309 314 316 318 322 324 324 324 325 324 321 320 319 320 322 318 311 305 302 298 293 292 290 285 285
229 232 237 246 250 251 254 254 257 261 262 269 274 280 287 292 297 303 307 311 314 316 318 318 317 318 319 320 318 317 316 315 314 315 316 311 303 300 298 294 292 290 288
231 236 243 246 250 253 256 256 255 258 261 265 269 276 285 289 294 300 304 306 307 309 310 312 313 312 312 313 315 315 315 314 312 310 311 311 309 306 303 299 295 293 292
235 242 245 245 246 250 254 256 255 258 262 265 269 276 282 286 292 297 299 300 303 305 306 308 310 309 308 309 309 310 311 311 309 308 307 307 308 308 306 305 301 297 295
Height
5893 5892 5892 5892 5892 5891 5891 5890 5890 5889 5888 5887 5887 5886 5886 5885 5885 5885 5884 5884 5883 5883 5883 5883 5883 5883 5883 5883 5883 5884 5885 5885 5886 5887 5887 5888 5889 5889 5890 5890 5891 5891 5892
5893 5893 5893 5893 5893 5892 5892 5891 5890 5889 5889 5888 5887 5887 5886 5886 5885 5885 5884 5884 5883 5883 5882 5882 5882 5882 5882 5882 5883 5883 5884 5884 5885 5886 5887 5887 5888 5889 5889 5889 5890 5891 5892
5894 5894 5893 5893 5893 5893 5892 5891 5891 5890 5889 5888 5888 5887 5887 5886 5886 5885 5884 5884 5883 5882 5882 5882 5881 5881 5882 5882 5882 5883 5883 5884 5884 5885 5886 5887 5887 5888 5888 5889 5890 5890 5891
5894 5894 5894 5894 5894 5893 5893 5892 5891 5891 5890 5889 5889 5888 5887 5886 5886 5885 5884 5883 5883 5882 5881 5881 5881 5881 5881 5881 5882 5882 5882 5883 5884 5884 5885 5886 5886 5887 5887 5888 5889 5890 5890
5894 5894 5894 5895 5894 5894 5893 5893 5892 5891 5890 5890 5889 5888 5887 5887 5886 5885 5884 5883 5882 5882 5881 5880 5880 5880 5880 5880 5880 5881 5881 5882 5883 5883 5884 5885 5885 5886 5886 5887 5888 5888 5889
5894 5894 5895 5894 5894 5894 5894 5893 5892 5892 5891 5890 5889 5889 5888 5887 5886 5885 5884 5883 5882 5881 5880 5880 5879 5879 5879 5879 5879 5880 5880 5881 5882 5882 5883 5883 5884 5884 5885 5886 5886 5887 5888
5894 5894 5894 5894 5894 5894 5894 5893 5893 5892 5891 5891 5890 5889 5888 5887 5886 5885 5884 5883 5882 5881 5880 5879 5878 5878 5878 5878 5878 5879 5879 5880 5881 5881 5882 5882 5883 5883 5883 5884 5885 5886 5887
5894 5894 5894 5894 5894 5894 5894 5894 5893 5893 5892 5891 5890 5889 5889 5888 5887 5885 5884 5883 5882 5881 5880 5879 5878 5877 5877 5877 5877 5877 5878 5879 5880 5880 5880 5881 5881 5882 5882 5883 5884 5884 5885
5894 5894 5894 5894 5894 5894 5894 5894 5893 5893 5892 5891 5891 5890 5889 5888 5887 5886 5884 5883 5882 5881 5880 5879 5877 5876 5876 5876 5876 5877 5877 5878 5878 5879 5879 5879 5880 5880 5881 5882 5882 5883 5884
5893 5894 5894 5894 5894 5894 5894 5894 5894 5893 5892 5892 5891 5890 5889 5888 5887 5886 5884 5883 5882 5881 5879 5878 5877 5876 5876 5875 5875 5876 5876 5877 5877 5877 5878 5878 5878 5879 5880 5880 5881 5881 5882
5893 5893 5894 5894 5894 5894 5894 5894 5894 5893 5892 5892 5891 5890 5889 5888 5887 5886 5884 5883 5882 5880 5879 5878 5877 5876 5875 5875 5875 5875 5875 5875 5876 5876 5876 5877 5877 5878 5878 5879 5879 5880 5881
5892 5893 5893 5894 5894 5894 5894 5893 5893 5893 5892 5892 5891 5890 5889 5888 5887 5885 5884 5883 5881 5880 5879 5878 5876 5875 5875 5874 5874 5874 5874 5875 5875 5875 5875 5876 5876 5876 5877 5877 5878 5878 5879
5891 5892 5893 5893 5893 5893 5893 5893 5893 5892 5892 5891 5891 5890 5889 5888 5887 5885 5884 5883 5881 5880 5879 5878 5876 5875 5875 5874 5874 5874 5874 5874 5874 5874 5874 5874 5875 5875 5875 5876 5876 5877 5877
5891 5891 5892 5892 5893 5893 5892 5892 5892 5892 5891 5891 5890 5890 5889 5888 5887 5885 5884 5883 5881 5880 5879 5878 5876 5875 5874 5874 5874 5874 5874 5874 5873 5873 5873 5873 5873 5873 5874 5874 5874 5875 5875
5890 5890 5891 5892 5892 5892 5892 5892 5892 5891 5891 5891 5890 5889 5889 5888 5887 5885 5884 5883 5881 5880 5879 5877 5876 5875 5875 5874 5874 5873 5873 5873 5873 5873 5872 5872 5872 5872 5872 5872 5873 5873 5874
5888 5889 5890 5891 5891 5891 5891 5891 5891 5891 5890 5890 5889 5889 5888 5888 5887 5885 5884 5883 5881 5880 5879 5878 5876 5876 5875 5874 5874 5873 5873 5872 5872 5872 5871 5871 5871 5871 5870 5870 5871 5871 5871
5887 5888 5889 5889 5890 5890 5890 5890 5890 5890 5890 5889 5889 5889 5888 5887 5886 5885 5884 5883 5881 5880 5879 5877 5876 5876 5875 5874 5874 5873 5872 5872 5871 5871 5870 5870 5869 5869 5869 5869 5869 5869 5870
5886 5887 5888 5888 5889 5889 5889 5889 5889 5889 5889 5889 5888 5888 5887 5887 5886 5885 5884 5883 5881 5880 5879 5877 5877 5876 5875 5874 5873 5873 5872 5871 5870 5869 5869 5868 5868 5868 5867 5867 5867 5868 5868
5884 5885 5886 5887 5887 5888 5888 5888 5888 5888 5888 5888 5887 5887 5887 5886 5885 5884 5883 5882 5881 5880 5879 5878 5877 5876 5875 5874 5873 5872 5871 5870 5869 5869 5868 5867 5866 5866 5866 5866 5866 5866 5866
5882 5884 5885 5885 5886 5886 5887 5887 5887 5887 5887 5887 5887 5886 5886 5885 5885 5884 5883 5882 5881 5880 5879 5877 5876 5875 5874 5873 5873 5872 5871 5869 5868 5868 5867 5866 5865 5865 5864 5864 5864 5864 5864
5881 5882 5883 5883 5884 5884 5885 5885 5886 5886 5886 5886 5885 5885 5885 5884 5884 5883 5882 5881 5880 5879 5878 5877 5876 5875 5874 5873 5872 5871 5870 5869 5867 5866 5866 5865 5864 5863 5863 5862 5862 5862 5862
5879 5880 5881 5882 5882 5883 5883 5884 5884 5884 5884 5884 5884 5884 5883 5883 5882 5882 5881 5880 5879 5878 5877 5876 5875 5874 5873 5872 5872 5870 5869 5868 5867 5865 5864 5863 5863 5862 5861 5861 5860 5860 5859
5877 5878 5879 5880 5880 5881 5881 5882 5882 5883 5883 5883 5883 5882 5882 5881 5881 5880 5880 5879 5878 5877 5876 5875 5874 5873 5872 5871 5870 5870 5868 5867 5866 5865 5863 5862 5861 5860 5859 5859 5858 5857 5857
5875 5876 5877 5877 5878 5879 5879 5880 5880 5881 5881 5881 5881 5881 5881 5880 5879 5879 5878 5877 5876 5876 5875 5874 5873 5872 5871 5870 5869 5868 5867 5866 5864 5863 5862 5861 5860 5858 5857 5856 5856 5855 5854
5872 5873 5874 5875 5876 5876 5877 5878 5878 5879 5879 5879 5879 5879 5879 5878 5878 5877 5876 5876 5875 5874 5873 5872 5871 5871 5869 5868 5867 5866 5865 5864 5863 5861 5860 5859 5858 5857 5855 5854 5853 5852 5851
5869 5871 5872 5872 5873 5874 5875 5875 5876 5876 5877 5877 5877 5877 5877 5877 5876 5876 5875 5874 5873 5873 5872 5871 5870 5869 5868 5866 5865 5864 5863 5862 5861 5859 5858 5857 5856 5854 5853 5852 5850 5849 5848